Location: Briarstone Lake
(43.1454°N, 93.2359°W)
Time: 08:32:29
(UTC+00:00)

BlueWalker 3 - Pass Details

Date: 27 January 2026
Orbit: 450 x 461 km, 53.2° (Epoch: 11 February)

Event Time Altitude Azimuth Distance (km) Brightness Sun altitude
Rises 01:28:31 0° 288° (WNW) 2,456 6.6 -23.9°
Reaches altitude 10° 01:31:12 10° 309° (NW) 1,584 5.1 -24.3°
Enters shadow 01:32:54 16° 337° (NNW) 1,254 4.1 -24.7°
